Location: Unspecified
(43.4680°N, 87.1740°E)
Time: 07:30:12
(UTC+00:00)

NOSS 0 Rocket - Pass Details

Date: 29 July 2021
Orbit: 936 x 954 km, 70.0° (Epoch: 18 September)

Event Time Altitude Azimuth Distance (km) Brightness Sun altitude
Rises 16:08:33 0° 341° (NNW) 3,639 8.4 -21.2°
Reaches altitude 10° 16:11:56 10° 359° (N) 2,688 7.1 -21.6°
Maximum altitude 16:16:18 19° 43° (NE) 2,082 5.9 -22.0°
Enters shadow 16:20:08 12° 84° (E) 2,556 6.0 -22.3°
